Gainesville, GA

3:16 AM EDT on May 24, 2017 (GMT -0400)
Gilmer Memorial

Weather History for KGVL - April, 2013

Change the Weather History Date:

Saturday, April 6, 2013

  Actual Average Record
Temperature  
Mean Temperature 56 °F 58 °F  
Max Temperature 69 °F 68 °F 87 °F (1988)
Min Temperature 43 °F 48 °F 27 °F (1944)
Degree Days  
Heating Degree Days 9 8  
Month to date heating degree days 50  
Since 1 July heating degree days 2902  
Cooling Degree Days 0 1  
Month to date cooling degree days 4  
Year to date cooling degree days 9  
Growing Degree Days 6 (Base 50)    
Moisture  
Dew Point 33 °F    
Average Humidity 42    
Maximum Humidity 73    
Minimum Humidity 24    
Precipitation  
Precipitation 0.00 in 0.11 in 2.13 in (1936)
Month to date precipitation 0.70  
Year to date precipitation 16.02  
Snow  
Snow 0.00 in - - ()
Month to date snowfall  
Since 1 July snowfall  
Snow Depth -    
Sea Level Pressure  
Sea Level Pressure 30.14 in    
Wind  
Wind Speed 4 mph (ESE)    
Max Wind Speed 12 mph    
Max Gust Speed 16 mph    
Visibility 10 miles    
Events      
T = Trace of Precipitation, MM = Missing Value Source: NWS Daily Summary

Daily Weather History Graph

Daily Weather History Graph

Search for Another Location

Airport or City:

Trip Planner

Search our weather history database for the weather conditions in past years. The results will help you decide how hot, cold, wet, or windy it might be!

Date:

Astronomy

Apr. 06, 2013 Rise Set
Actual Time 7:15 AM EDT 8:00 PM EDT
Civil Twilight 6:50 AM EDT 8:25 PM EDT
Nautical Twilight 6:20 AM EDT 8:55 PM EDT
Astronomical Twilight 5:49 AM EDT 9:26 PM EDT
Moon 4:49 AM EDT (4/6) 4:36 PM EDT (4/6)
Length of Visible Light 13h 35m
Length of Day
12h 44m
Waning Crescent, 15% of the Moon is Illuminated
Apr 6
Waning Crescent
Apr 10
New
Apr 18
First Quarter
Apr 25
Full
May 2
Last Quarter

Hourly Weather History & Observations

Time (EDT) Temp. Windchill Dew Point Humidity Pressure Visibility Wind Dir Wind Speed Gust Speed Precip Events Conditions
12:53 AM 53.1 °F - 33.1 °F 47% 30.07 in 10.0 mi North 4.6 mph - N/A   Clear
1:53 AM 50.0 °F - 33.1 °F 52% 30.09 in 10.0 mi Calm Calm - N/A   Clear
2:53 AM 48.9 °F - 33.1 °F 54% 30.09 in 10.0 mi Calm Calm - N/A   Clear
3:53 AM 46.0 °F - 34.0 °F 63% 30.09 in 10.0 mi Calm Calm - N/A   Clear
4:53 AM 45.0 °F - 34.0 °F 65% 30.09 in 10.0 mi Calm Calm - N/A   Clear
5:53 AM 44.1 °F - 36.0 °F 73% 30.11 in 10.0 mi Calm Calm - N/A   Clear
6:53 AM 44.1 °F - 36.0 °F 73% 30.13 in 10.0 mi Calm Calm - N/A   Clear
7:53 AM 45.0 °F 42.6 °F 36.0 °F 71% 30.17 in 10.0 mi NNE 4.6 mph - N/A   Clear
8:53 AM 52.0 °F - 35.1 °F 53% 30.19 in 10.0 mi NE 3.5 mph - N/A   Clear
9:53 AM 57.0 °F - 33.1 °F 40% 30.19 in 10.0 mi ENE 6.9 mph - N/A   Clear
10:53 AM 62.1 °F - 33.1 °F 34% 30.20 in 10.0 mi East 9.2 mph 16.1 mph N/A   Clear
11:53 AM 64.0 °F - 33.1 °F 31% 30.20 in 10.0 mi SE 10.4 mph - N/A   Clear
12:53 PM 64.9 °F - 33.1 °F 31% 30.20 in 10.0 mi SE 6.9 mph 16.1 mph N/A   Clear
1:53 PM 66.9 °F - 34.0 °F 30% 30.17 in 10.0 mi SSE 9.2 mph - N/A   Clear
2:53 PM 68.0 °F - 33.1 °F 27% 30.15 in 10.0 mi SE 11.5 mph 16.1 mph N/A   Clear
3:53 PM 69.1 °F - 30.9 °F 24% 30.14 in 10.0 mi South 9.2 mph - N/A   Clear
4:53 PM 69.1 °F - 30.9 °F 24% 30.12 in 10.0 mi SE 10.4 mph - N/A   Clear
5:53 PM 69.1 °F - 30.9 °F 24% 30.12 in 10.0 mi Variable 5.8 mph - N/A   Clear
6:53 PM 68.0 °F - 30.9 °F 25% 30.12 in 10.0 mi South 5.8 mph - N/A   Clear
7:53 PM 64.9 °F - 32.0 °F 29% 30.13 in 10.0 mi SSE 3.5 mph - N/A   Clear
8:53 PM 62.1 °F - 32.0 °F 32% 30.14 in 10.0 mi Calm Calm - N/A   Clear
9:53 PM 61.0 °F - 32.0 °F 34% 30.14 in 10.0 mi Calm Calm - N/A   Clear
10:53 PM 59.0 °F - 32.0 °F 36% 30.15 in 10.0 mi ESE 3.5 mph - N/A   Clear
11:53 PM 57.9 °F - 33.1 °F 39% 30.16 in 10.0 mi Calm Calm - N/A   Clear